Find Starlink 32080

NORAD ID: 59683 Int'l Des: 2024-086 Owner: SPXS Country: US Constellation: starlink operational
LEOCIRCULAR

現在のビュー

3D地球を読み込み中...

About Starlink 32080

Starlink 32080 (NORAD 59683) is a starlink constellation satellite (v2 mini) launched May 8, 2024 by SPXS of US. It operates in LEO, CIRCULAR orbit with a mass of 730.00 kg.

次回通過

Passes for default location (London). Set your location on the main map for personalized predictions.

高度履歴

Loading altitude history...

軌道要素

1 59683U 24086B 26263.12897036 .00000515 00000-0 28249-4 0 9996
2 59683 43.0051 45.7044 0001318 270.0595 90.0105 15.27580393133815
Epoch: Sep 20, 2026 • Age: 14 hours

現在のステータス

高度 486.3 km
遠地点 / 近地点 N/A
速度 7.63 km/s
衛星直下点 39.99°N, 156.74°W
打ち上げ日 May 8, 2024
運用期間 2.3 years
タイプ internet

技術仕様

分類 Payload
質量 730.00 kg
乾燥質量 700.00 kg
長さ 0.30 m
スパン 29.00 m
形状 ? Box + pan
製造者 SPXS
バスタイプ Starlink V2M
フェーズステータス In Orbit
所有者/国 SPXS/US

Most Searched